Time,TemperatureF,DewpointF,PressureIn,WindDirection,WindDirectionDegrees,WindSpeedMPH,WindSpeedGustMPH,Humidity,HourlyPrecipIn,Conditions,Clouds,dailyrainin,SoftwareType,DateUTC
2013-04-03 00:00:00,66.9,62.6,30.08,ENE,69,0.0,0.0,86,0.00,,,0.00,Wunderground v.1.13,2013-04-03 04:00:00,
2013-04-03 00:06:00,66.9,62.6,30.08,ENE,68,0.0,0.0,86,0.00,,,0.00,Wunderground v.1.13,2013-04-03 04:06:00,
2013-04-03 00:08:00,66.9,62.6,30.08,ENE,69,0.0,0.0,86,0.00,,,0.00,Wunderground v.1.13,2013-04-03 04:08:00,
2013-04-03 00:12:00,66.9,62.6,30.08,ENE,69,0.0,0.0,86,0.00,,,0.00,Wunderground v.1.13,2013-04-03 04:12:00,
2013-04-03 00:18:00,66.8,62.5,30.08,ENE,68,0.0,0.0,86,0.00,,,0.00,Wunderground v.1.13,2013-04-03 04:18:00,
2013-04-03 00:24:00,66.7,62.4,30.08,ENE,68,0.0,0.0,86,0.00,,,0.00,Wunderground v.1.13,2013-04-03 04:24:00,
2013-04-03 00:30:00,66.8,62.8,30.08,ENE,69,0.0,0.0,87,0.00,,,0.00,Wunderground v.1.13,2013-04-03 04:30:00,
2013-04-03 00:36:00,66.6,62.6,30.09,ENE,69,0.0,0.0,87,0.00,,,0.00,Wunderground v.1.13,2013-04-03 04:36:00,
2013-04-03 00:42:00,66.5,62.8,30.09,ENE,69,0.0,0.0,88,0.00,,,0.00,Wunderground v.1.13,2013-04-03 04:42:00,
2013-04-03 00:48:00,66.4,62.7,30.09,ENE,69,0.0,0.0,88,0.00,,,0.00,Wunderground v.1.13,2013-04-03 04:48:00,
2013-04-03 00:54:00,66.2,62.5,30.09,ENE,69,0.0,0.0,88,0.00,,,0.00,Wunderground v.1.13,2013-04-03 04:54:00,
2013-04-03 01:00:00,66.1,62.4,30.08,ENE,69,0.0,0.0,88,0.00,,,0.00,Wunderground v.1.13,2013-04-03 05:00:00,
2013-04-03 01:08:00,66.0,62.7,30.08,ENE,69,0.0,0.0,89,0.00,,,0.00,Wunderground v.1.13,2013-04-03 05:08:00,
2013-04-03 01:14:00,65.9,62.2,30.08,ENE,68,0.0,0.0,88,0.00,,,0.00,Wunderground v.1.13,2013-04-03 05:14:00,
2013-04-03 01:20:00,65.9,62.6,30.08,ENE,69,0.0,0.0,89,0.00,,,0.00,Wunderground v.1.13,2013-04-03 05:20:00,
2013-04-03 01:26:00,65.8,62.5,30.08,ENE,68,0.0,0.0,89,0.00,,,0.00,Wunderground v.1.13,2013-04-03 05:26:00,
2013-04-03 01:32:00,65.7,62.4,30.07,ENE,69,0.0,0.0,89,0.00,,,0.00,Wunderground v.1.13,2013-04-03 05:32:00,
2013-04-03 01:38:00,65.8,62.8,30.07,ENE,69,0.0,0.0,90,0.00,,,0.00,Wunderground v.1.13,2013-04-03 05:38:00,
2013-04-03 01:44:00,65.8,62.8,30.06,ENE,69,0.0,0.0,90,0.00,,,0.00,Wunderground v.1.13,2013-04-03 05:44:00,
2013-04-03 01:50:00,65.6,62.6,30.07,ENE,68,0.0,0.0,90,0.00,,,0.00,Wunderground v.1.13,2013-04-03 05:50:00,
2013-04-03 01:58:00,65.3,62.0,30.06,ENE,69,0.0,0.0,89,0.00,,,0.00,Wunderground v.1.13,2013-04-03 05:58:00,
2013-04-03 02:04:00,65.1,62.1,30.06,ENE,69,0.0,0.0,90,0.00,,,0.00,Wunderground v.1.13,2013-04-03 06:04:00,
2013-04-03 02:10:00,65.1,62.1,30.05,ENE,69,0.0,0.0,90,0.00,,,0.00,Wunderground v.1.13,2013-04-03 06:10:00,
2013-04-03 02:16:00,65.2,62.5,30.05,ENE,69,0.0,0.0,91,0.00,,,0.00,Wunderground v.1.13,2013-04-03 06:16:00,
2013-04-03 02:22:00,65.2,62.5,30.04,ENE,69,0.0,0.0,91,0.00,,,0.00,Wunderground v.1.13,2013-04-03 06:22:00,
2013-04-03 02:28:00,65.0,62.3,30.04,ENE,69,0.0,0.0,91,0.00,,,0.00,Wunderground v.1.13,2013-04-03 06:28:00,
2013-04-03 02:34:00,64.8,62.1,30.04,ENE,68,0.0,0.0,91,0.00,,,0.00,Wunderground v.1.13,2013-04-03 06:34:00,
2013-04-03 02:40:00,64.7,62.0,30.04,ENE,68,0.0,0.0,91,0.00,,,0.00,Wunderground v.1.13,2013-04-03 06:40:00,
2013-04-03 02:46:00,64.6,61.9,30.04,ENE,68,0.0,0.0,91,0.00,,,0.00,Wunderground v.1.13,2013-04-03 06:46:00,
2013-04-03 02:54:00,64.6,61.9,30.03,ENE,68,0.0,0.0,91,0.00,,,0.00,Wunderground v.1.13,2013-04-03 06:54:00,
2013-04-03 03:00:00,64.5,61.8,30.03,ENE,69,0.0,0.0,91,0.00,,,0.00,Wunderground v.1.13,2013-04-03 07:00:00,
2013-04-03 03:06:00,64.7,62.3,30.02,ENE,69,0.0,0.0,92,0.00,,,0.00,Wunderground v.1.13,2013-04-03 07:06:00,
2013-04-03 03:12:00,65.0,62.6,30.02,ENE,69,0.0,0.0,92,0.00,,,0.00,Wunderground v.1.13,2013-04-03 07:12:00,
2013-04-03 03:18:00,65.3,63.2,30.02,ENE,69,0.0,0.0,93,0.00,,,0.00,Wunderground v.1.13,2013-04-03 07:18:00,
2013-04-03 03:24:00,65.4,63.0,30.01,ENE,68,0.0,0.0,92,0.00,,,0.00,Wunderground v.1.13,2013-04-03 07:24:00,
2013-04-03 03:30:00,65.5,63.1,30.00,ENE,68,0.0,0.0,92,0.00,,,0.00,Wunderground v.1.13,2013-04-03 07:30:00,
2013-04-03 03:36:00,65.4,63.0,30.00,ENE,69,0.0,0.0,92,0.00,,,0.00,Wunderground v.1.13,2013-04-03 07:36:00,
2013-04-03 03:42:00,65.5,63.1,30.01,ENE,68,0.0,0.0,92,0.00,,,0.00,Wunderground v.1.13,2013-04-03 07:42:00,
2013-04-03 03:48:00,65.6,63.2,30.01,ENE,69,0.0,0.0,92,0.00,,,0.00,Wunderground v.1.13,2013-04-03 07:48:00,
2013-04-03 03:54:00,65.8,63.1,30.01,ENE,69,0.0,0.0,91,0.00,,,0.00,Wunderground v.1.13,2013-04-03 07:54:00,
2013-04-03 04:00:00,65.8,63.1,30.01,ENE,69,0.0,0.0,91,0.00,,,0.00,Wunderground v.1.13,2013-04-03 08:00:00,
2013-04-03 04:06:00,65.8,62.8,30.01,ENE,68,0.0,0.0,90,0.00,,,0.00,Wunderground v.1.13,2013-04-03 08:06:00,
2013-04-03 04:12:00,65.8,62.8,30.01,ENE,69,0.0,0.0,90,0.00,,,0.00,Wunderground v.1.13,2013-04-03 08:12:00,
2013-04-03 04:18:00,65.8,62.8,30.01,ENE,68,0.0,0.0,90,0.00,,,0.00,Wunderground v.1.13,2013-04-03 08:18:00,
2013-04-03 04:24:00,65.9,62.9,30.00,ENE,69,0.0,0.0,90,0.00,,,0.00,Wunderground v.1.13,2013-04-03 08:24:00,
2013-04-03 04:30:00,66.1,63.1,30.01,ENE,76,0.0,0.0,90,0.00,,,0.00,Wunderground v.1.13,2013-04-03 08:30:00,
2013-04-03 04:36:00,66.3,63.0,30.01,ESE,118,0.0,0.0,89,0.00,,,0.00,Wunderground v.1.13,2013-04-03 08:36:00,
2013-04-03 04:42:00,66.4,63.1,30.01,ESE,122,0.0,0.0,89,0.00,,,0.00,Wunderground v.1.13,2013-04-03 08:42:00,
2013-04-03 04:48:00,66.6,63.3,30.01,ESE,118,0.0,0.0,89,0.00,,,0.00,Wunderground v.1.13,2013-04-03 08:48:00,
2013-04-03 04:54:00,66.7,63.4,30.01,SE,126,0.0,0.0,89,0.00,,,0.00,Wunderground v.1.13,2013-04-03 08:54:00,
2013-04-03 05:00:00,66.7,63.4,30.01,SE,126,0.0,0.0,89,0.00,,,0.00,Wunderground v.1.13,2013-04-03 09:00:00,
2013-04-03 05:06:00,66.7,63.4,30.01,SE,125,0.0,0.0,89,0.00,,,0.00,Wunderground v.1.13,2013-04-03 09:06:00,
2013-04-03 05:12:00,66.7,63.4,30.01,SE,125,0.0,0.0,89,0.00,,,0.00,Wunderground v.1.13,2013-04-03 09:12:00,
2013-04-03 05:18:00,66.6,63.3,30.01,SE,126,0.0,2.0,89,0.00,,,0.00,Wunderground v.1.13,2013-04-03 09:18:00,
2013-04-03 05:24:00,66.6,63.6,30.00,SE,133,0.0,2.0,90,0.00,,,0.00,Wunderground v.1.13,2013-04-03 09:24:00,
2013-04-03 05:30:00,66.5,63.5,30.00,SE,130,0.0,2.0,90,0.00,,,0.00,Wunderground v.1.13,2013-04-03 09:30:00,
2013-04-03 05:38:00,66.4,63.4,30.01,SE,130,0.0,2.0,90,0.00,,,0.00,Wunderground v.1.13,2013-04-03 09:38:00,
2013-04-03 05:44:00,66.4,63.7,30.01,SE,128,0.0,2.0,91,0.00,,,0.00,Wunderground v.1.13,2013-04-03 09:44:00,
2013-04-03 05:50:00,66.4,63.7,30.00,SE,128,0.0,2.0,91,0.00,,,0.00,Wunderground v.1.13,2013-04-03 09:50:00,
2013-04-03 05:56:00,66.4,63.7,30.00,SE,128,0.0,2.0,91,0.00,,,0.00,Wunderground v.1.13,2013-04-03 09:56:00,
2013-04-03 06:02:00,66.3,63.6,30.00,SE,128,0.0,2.0,91,0.00,,,0.00,Wunderground v.1.13,2013-04-03 10:02:00,
2013-04-03 06:08:00,66.3,63.6,30.00,SE,128,0.0,0.0,91,0.00,,,0.00,Wunderground v.1.13,2013-04-03 10:08:00,
2013-04-03 06:14:00,66.4,64.0,30.00,SE,128,0.0,0.0,92,0.00,,,0.00,Wunderground v.1.13,2013-04-03 10:14:00,
2013-04-03 06:20:00,66.4,64.0,30.00,SE,128,0.0,0.0,92,0.00,,,0.00,Wunderground v.1.13,2013-04-03 10:20:00,
2013-04-03 06:28:00,66.5,64.1,30.00,SE,124,0.0,0.0,92,0.00,,,0.00,Wunderground v.1.13,2013-04-03 10:28:00,
2013-04-03 06:34:00,66.5,64.1,30.00,SE,124,0.0,0.0,92,0.00,,,0.00,Wunderground v.1.13,2013-04-03 10:34:00,
2013-04-03 06:40:00,66.5,64.1,30.00,ESE,122,0.0,0.0,92,0.00,,,0.00,Wunderground v.1.13,2013-04-03 10:40:00,
2013-04-03 06:48:00,66.5,64.1,30.00,ESE,123,0.0,0.0,92,0.00,,,0.00,Wunderground v.1.13,2013-04-03 10:48:00,
2013-04-03 06:54:00,66.5,64.4,30.01,ESE,122,0.0,0.0,93,0.00,,,0.00,Wunderground v.1.13,2013-04-03 10:54:00,
2013-04-03 07:00:00,66.5,64.4,30.01,ESE,123,0.0,0.0,93,0.00,,,0.00,Wunderground v.1.13,2013-04-03 11:00:00,
2013-04-03 07:06:00,66.6,64.5,30.01,ESE,122,0.0,0.0,93,0.00,,,0.00,Wunderground v.1.13,2013-04-03 11:06:00,
2013-04-03 07:12:00,66.8,64.7,30.01,ESE,121,0.0,0.0,93,0.00,,,0.00,Wunderground v.1.13,2013-04-03 11:12:00,
2013-04-03 07:18:00,67.0,64.9,30.01,SSE,159,0.0,0.0,93,0.00,,,0.00,Wunderground v.1.13,2013-04-03 11:18:00,
2013-04-03 07:24:00,67.0,64.9,30.01,SE,128,0.0,0.0,93,0.00,,,0.00,Wunderground v.1.13,2013-04-03 11:24:00,
2013-04-03 07:30:00,67.1,65.0,30.01,SSE,153,0.0,0.0,93,0.00,,,0.00,Wunderground v.1.13,2013-04-03 11:30:00,
2013-04-03 07:36:00,67.2,65.1,30.01,SE,142,0.0,0.0,93,0.00,,,0.00,Wunderground v.1.13,2013-04-03 11:36:00,
2013-04-03 07:42:00,67.2,65.1,30.01,ESE,115,0.0,0.0,93,0.00,,,0.00,Wunderground v.1.13,2013-04-03 11:42:00,
2013-04-03 07:48:00,67.3,65.2,30.02,SE,146,0.0,0.0,93,0.00,,,0.00,Wunderground v.1.13,2013-04-03 11:48:00,
2013-04-03 07:54:00,67.5,65.4,30.02,ESE,116,0.0,0.0,93,0.00,,,0.00,Wunderground v.1.13,2013-04-03 11:54:00,
2013-04-03 08:00:00,67.7,65.6,30.02,ESE,123,0.0,0.0,93,0.00,,,0.00,Wunderground v.1.13,2013-04-03 12:00:00,
2013-04-03 08:08:00,68.0,65.9,30.02,SE,142,0.0,0.0,93,0.00,,,0.00,Wunderground v.1.13,2013-04-03 12:08:00,
2013-04-03 08:14:00,68.2,66.1,30.02,SE,135,0.0,3.0,93,0.00,,,0.00,Wunderground v.1.13,2013-04-03 12:14:00,
2013-04-03 08:20:00,68.5,66.1,30.03,ESE,121,0.0,4.0,92,0.00,,,0.00,Wunderground v.1.13,2013-04-03 12:20:00,
2013-04-03 08:26:00,68.9,66.5,30.03,ESE,118,0.0,4.0,92,0.00,,,0.00,Wunderground v.1.13,2013-04-03 12:26:00,
2013-04-03 08:32:00,69.3,66.9,30.03,ESE,114,0.0,4.0,92,0.00,,,0.00,Wunderground v.1.13,2013-04-03 12:32:00,
2013-04-03 08:38:00,69.6,66.9,30.04,SSE,160,1.0,4.0,91,0.00,,,0.00,Wunderground v.1.13,2013-04-03 12:38:00,
2013-04-03 08:44:00,69.9,66.8,30.04,ESE,117,1.0,4.0,90,0.00,,,0.00,Wunderground v.1.13,2013-04-03 12:44:00,
2013-04-03 08:50:00,69.9,66.8,30.04,SSE,149,3.0,8.0,90,0.00,,,0.00,Wunderground v.1.13,2013-04-03 12:50:00,
2013-04-03 08:58:00,70.1,66.7,30.03,SSE,148,2.0,7.0,89,0.00,,,0.00,Wunderground v.1.13,2013-04-03 12:58:00,
2013-04-03 09:04:00,70.3,66.9,30.03,SSE,165,2.0,11.0,89,0.00,,,0.00,Wunderground v.1.13,2013-04-03 13:04:00,
2013-04-03 09:10:00,70.5,67.1,30.03,SSE,155,4.0,5.0,89,0.00,,,0.00,Wunderground v.1.13,2013-04-03 13:10:00,
2013-04-03 09:16:00,70.8,67.1,30.04,SE,132,4.0,12.0,88,0.00,,,0.00,Wunderground v.1.13,2013-04-03 13:16:00,
2013-04-03 09:22:00,71.2,67.5,30.04,SE,142,3.0,12.0,88,0.00,,,0.00,Wunderground v.1.13,2013-04-03 13:22:00,
2013-04-03 09:28:00,71.6,67.5,30.03,SSE,149,3.0,12.0,87,0.00,,,0.00,Wunderground v.1.13,2013-04-03 13:28:00,
2013-04-03 09:34:00,71.9,67.8,30.03,SSE,160,6.0,12.0,87,0.00,,,0.00,Wunderground v.1.13,2013-04-03 13:34:00,
2013-04-03 09:40:00,72.3,67.9,30.03,SSE,152,4.0,12.0,86,0.00,,,0.00,Wunderground v.1.13,2013-04-03 13:40:00,
2013-04-03 09:48:00,72.5,67.7,30.03,SE,128,5.0,5.0,85,0.00,,,0.00,Wunderground v.1.13,2013-04-03 13:48:00,
2013-04-03 09:54:00,73.0,68.2,30.03,South,171,3.0,12.0,85,0.00,,,0.00,Wunderground v.1.13,2013-04-03 13:54:00,
2013-04-03 10:00:00,73.1,68.0,30.03,SSE,165,5.0,13.0,84,0.00,,,0.00,Wunderground v.1.13,2013-04-03 14:00:00,
2013-04-03 10:06:00,73.2,68.4,30.03,ESE,111,7.0,7.0,85,0.00,,,0.00,Wunderground v.1.13,2013-04-03 14:06:00,
2013-04-03 10:12:00,73.3,68.2,30.03,SSE,161,6.0,6.0,84,0.00,,,0.00,Wunderground v.1.13,2013-04-03 14:12:00,
2013-04-03 10:18:00,73.6,68.1,30.03,South,186,4.0,17.0,83,0.00,,,0.00,Wunderground v.1.13,2013-04-03 14:18:00,
2013-04-03 10:24:00,73.9,68.1,30.04,SSE,149,4.0,17.0,82,0.00,,,0.00,Wunderground v.1.13,2013-04-03 14:24:00,
2013-04-03 10:30:00,74.0,68.2,30.03,SSE,157,6.0,17.0,82,0.00,,,0.00,Wunderground v.1.13,2013-04-03 14:30:00,
2013-04-03 10:36:00,74.5,68.6,30.03,South,169,4.0,17.0,82,0.00,,,0.00,Wunderground v.1.13,2013-04-03 14:36:00,
2013-04-03 10:42:00,75.2,68.6,30.03,SSE,158,2.0,2.0,80,0.00,,,0.00,Wunderground v.1.13,2013-04-03 14:42:00,
2013-04-03 10:48:00,75.7,68.7,30.03,East,101,2.0,17.0,79,0.00,,,0.00,Wunderground v.1.13,2013-04-03 14:48:00,
2013-04-03 10:54:00,75.9,68.9,30.03,SSE,159,5.0,5.0,79,0.00,,,0.00,Wunderground v.1.13,2013-04-03 14:54:00,
2013-04-03 11:00:00,76.4,68.7,30.03,SE,144,4.0,17.0,77,0.00,,,0.00,Wunderground v.1.13,2013-04-03 15:00:00,
2013-04-03 11:06:00,76.8,69.0,30.02,SSE,159,4.0,7.0,77,0.00,,,0.00,Wunderground v.1.13,2013-04-03 15:06:00,
2013-04-03 11:12:00,77.0,68.5,30.02,SSE,163,3.0,10.0,75,0.00,,,0.00,Wunderground v.1.13,2013-04-03 15:12:00,
2013-04-03 11:18:00,76.8,68.7,30.02,South,176,4.0,4.0,76,0.00,,,0.00,Wunderground v.1.13,2013-04-03 15:18:00,
2013-04-03 11:24:00,76.7,68.2,30.01,SSE,166,3.0,3.0,75,0.00,,,0.00,Wunderground v.1.13,2013-04-03 15:24:00,
2013-04-03 11:30:00,76.7,67.8,30.01,SSE,163,4.0,18.0,74,0.00,,,0.00,Wunderground v.1.13,2013-04-03 15:30:00,
2013-04-03 11:36:00,76.6,67.7,30.01,SE,129,6.0,6.0,74,0.00,,,0.00,Wunderground v.1.13,2013-04-03 15:36:00,
2013-04-03 11:42:00,77.0,67.7,30.00,SSE,157,4.0,18.0,73,0.00,,,0.00,Wunderground v.1.13,2013-04-03 15:42:00,
2013-04-03 11:48:00,77.2,67.9,30.01,South,169,5.0,5.0,73,0.00,,,0.00,Wunderground v.1.13,2013-04-03 15:48:00,
2013-04-03 11:54:00,77.9,68.5,30.01,SSE,151,3.0,3.0,73,0.00,,,0.00,Wunderground v.1.13,2013-04-03 15:54:00,
2013-04-03 12:00:00,78.6,68.8,30.01,South,189,2.0,2.0,72,0.00,,,0.00,Wunderground v.1.13,2013-04-03 16:00:00,
2013-04-03 12:08:00,79.4,68.8,30.01,SSW,207,2.0,5.0,70,0.00,,,0.00,Wunderground v.1.13,2013-04-03 16:08:00,
2013-04-03 12:14:00,79.5,69.3,30.01,South,188,1.0,2.0,71,0.00,,,0.00,Wunderground v.1.13,2013-04-03 16:14:00,
2013-04-03 12:20:00,80.0,68.9,30.01,SSE,153,2.0,3.0,69,0.00,,,0.00,Wunderground v.1.13,2013-04-03 16:20:00,
2013-04-03 12:26:00,80.5,69.0,30.01,South,182,3.0,17.0,68,0.00,,,0.00,Wunderground v.1.13,2013-04-03 16:26:00,
2013-04-03 12:32:00,80.7,69.2,30.00,ESE,118,2.0,5.0,68,0.00,,,0.00,Wunderground v.1.13,2013-04-03 16:32:00,
2013-04-03 12:38:00,80.8,68.8,30.00,SSE,165,3.0,6.0,67,0.00,,,0.00,Wunderground v.1.13,2013-04-03 16:38:00,
2013-04-03 12:44:00,80.6,68.2,30.00,SSE,149,4.0,17.0,66,0.00,,,0.00,Wunderground v.1.13,2013-04-03 16:44:00,
2013-04-03 12:50:00,81.0,68.6,30.00,SSE,166,3.0,17.0,66,0.00,,,0.00,Wunderground v.1.13,2013-04-03 16:50:00,
2013-04-03 12:56:00,81.4,68.1,30.00,South,173,3.0,17.0,64,0.00,,,0.00,Wunderground v.1.13,2013-04-03 16:56:00,
2013-04-03 13:02:00,81.2,68.3,29.99,SSE,160,6.0,17.0,65,0.00,,,0.00,Wunderground v.1.13,2013-04-03 17:02:00,
2013-04-03 13:08:00,81.7,68.3,29.99,SSE,152,3.0,9.0,64,0.00,,,0.00,Wunderground v.1.13,2013-04-03 17:08:00,
2013-04-03 13:14:00,82.0,68.2,29.99,SSE,163,3.0,7.0,63,0.00,,,0.00,Wunderground v.1.13,2013-04-03 17:14:00,
2013-04-03 13:20:00,82.4,68.5,29.99,SSE,156,4.0,15.0,63,0.00,,,0.00,Wunderground v.1.13,2013-04-03 17:20:00,
2013-04-03 13:26:00,82.7,68.4,29.99,SSE,156,2.0,15.0,62,0.00,,,0.00,Wunderground v.1.13,2013-04-03 17:26:00,
2013-04-03 13:32:00,82.9,68.5,30.00,SSE,159,2.0,15.0,62,0.00,,,0.00,Wunderground v.1.13,2013-04-03 17:32:00,
2013-04-03 13:38:00,83.7,68.3,30.00,South,180,1.0,15.0,60,0.00,,,0.00,Wunderground v.1.13,2013-04-03 17:38:00,
2013-04-03 13:48:00,83.4,68.1,30.00,South,180,2.0,2.0,60,0.00,,,0.00,Wunderground v.1.13,2013-04-03 17:48:00,
2013-04-03 13:54:00,83.4,68.5,30.00,South,187,2.0,2.0,61,0.00,,,0.00,Wunderground v.1.13,2013-04-03 17:54:00,
2013-04-03 14:00:00,83.5,68.6,29.99,SSW,206,2.0,2.0,61,0.00,,,0.00,Wunderground v.1.13,2013-04-03 18:00:00,
2013-04-03 14:06:00,83.6,68.2,29.99,SSE,159,2.0,2.0,60,0.00,,,0.00,Wunderground v.1.13,2013-04-03 18:06:00,
2013-04-03 14:12:00,84.1,69.2,29.99,SSW,202,0.0,0.0,61,0.00,,,0.00,Wunderground v.1.13,2013-04-03 18:12:00,
2013-04-03 14:18:00,84.3,68.9,30.00,SSW,212,2.0,2.0,60,0.00,,,0.00,Wunderground v.1.13,2013-04-03 18:18:00,
2013-04-03 14:24:00,84.4,69.5,30.00,SSW,202,2.0,2.0,61,0.00,,,0.00,Wunderground v.1.13,2013-04-03 18:24:00,
2013-04-03 14:30:00,83.6,69.2,29.99,West,260,2.0,11.0,62,0.00,,,0.00,Wunderground v.1.13,2013-04-03 18:30:00,
2013-04-03 14:36:00,83.0,68.6,30.00,SW,236,3.0,11.0,62,0.00,,,0.00,Wunderground v.1.13,2013-04-03 18:36:00,
2013-04-03 14:42:00,82.3,68.0,30.00,WSW,245,3.0,3.0,62,0.00,,,0.00,Wunderground v.1.13,2013-04-03 18:42:00,
2013-04-03 14:48:00,82.3,68.0,30.00,SW,230,2.0,11.0,62,0.00,,,0.00,Wunderground v.1.13,2013-04-03 18:48:00,
2013-04-03 14:54:00,81.4,67.6,30.00,SW,229,3.0,11.0,63,0.00,,,0.00,Wunderground v.1.13,2013-04-03 18:54:00,
2013-04-03 15:00:00,81.1,66.8,30.00,SW,223,4.0,4.0,62,0.00,,,0.00,Wunderground v.1.13,2013-04-03 19:00:00,
2013-04-03 15:06:00,81.5,66.8,30.00,SSW,210,3.0,3.0,61,0.00,,,0.00,Wunderground v.1.13,2013-04-03 19:06:00,
2013-04-03 15:12:00,81.6,66.8,29.99,SSW,211,3.0,3.0,61,0.00,,,0.00,Wunderground v.1.13,2013-04-03 19:12:00,
2013-04-03 15:18:00,81.6,66.8,29.99,SSW,206,2.0,11.0,61,0.00,,,0.00,Wunderground v.1.13,2013-04-03 19:18:00,
2013-04-03 15:24:00,81.4,65.7,29.98,SSW,207,4.0,11.0,59,0.00,,,0.00,Wunderground v.1.13,2013-04-03 19:24:00,
2013-04-03 15:30:00,81.2,65.5,29.98,SSW,213,5.0,5.0,59,0.00,,,0.00,Wunderground v.1.13,2013-04-03 19:30:00,
2013-04-03 15:36:00,81.2,65.5,29.97,West,259,2.0,11.0,59,0.00,,,0.00,Wunderground v.1.13,2013-04-03 19:36:00,
2013-04-03 15:42:00,81.1,65.4,29.97,SW,223,1.0,11.0,59,0.00,,,0.00,Wunderground v.1.13,2013-04-03 19:42:00,
2013-04-03 15:48:00,80.8,66.1,29.97,SW,219,1.0,1.0,61,0.00,,,0.00,Wunderground v.1.13,2013-04-03 19:48:00,
2013-04-03 15:54:00,80.2,65.5,29.97,SW,221,2.0,2.0,61,0.00,,,0.00,Wunderground v.1.13,2013-04-03 19:54:00,
2013-04-03 16:00:00,80.3,66.1,29.98,WSW,251,3.0,3.0,62,0.00,,,0.00,Wunderground v.1.13,2013-04-03 20:00:00,
2013-04-03 16:06:00,80.0,65.8,29.98,SSW,198,2.0,11.0,62,0.00,,,0.00,Wunderground v.1.13,2013-04-03 20:06:00,
2013-04-03 16:12:00,79.9,65.2,29.98,WSW,244,2.0,4.0,61,0.00,,,0.00,Wunderground v.1.13,2013-04-03 20:12:00,
2013-04-03 16:18:00,79.6,65.4,29.98,SW,230,1.0,11.0,62,0.00,,,0.00,Wunderground v.1.13,2013-04-03 20:18:00,
2013-04-03 16:24:00,79.3,66.1,29.98,SW,218,2.0,11.0,64,0.00,,,0.00,Wunderground v.1.13,2013-04-03 20:24:00,
2013-04-03 16:30:00,78.8,66.9,29.97,SSW,202,3.0,3.0,67,0.00,,,0.00,Wunderground v.1.13,2013-04-03 20:30:00,
2013-04-03 16:38:00,78.3,66.9,29.97,SSW,205,1.0,11.0,68,0.00,,,0.00,Wunderground v.1.13,2013-04-03 20:38:00,
2013-04-03 16:44:00,78.6,67.2,29.97,SW,214,0.0,11.0,68,0.00,,,0.00,Wunderground v.1.13,2013-04-03 20:44:00,
2013-04-03 16:50:00,78.5,66.6,29.97,SSW,195,1.0,11.0,67,0.00,,,0.00,Wunderground v.1.13,2013-04-03 20:50:00,
2013-04-03 16:58:00,78.5,66.2,29.97,SSW,202,1.0,11.0,66,0.00,,,0.00,Wunderground v.1.13,2013-04-03 20:58:00,
2013-04-03 17:04:00,78.2,66.8,29.97,SSW,206,2.0,11.0,68,0.00,,,0.00,Wunderground v.1.13,2013-04-03 21:04:00,
2013-04-03 17:10:00,78.0,67.0,29.97,SSW,211,1.0,2.0,69,0.00,,,0.00,Wunderground v.1.13,2013-04-03 21:10:00,
2013-04-03 17:16:00,77.8,66.4,29.97,SSW,196,1.0,6.0,68,0.00,,,0.00,Wunderground v.1.13,2013-04-03 21:16:00,
2013-04-03 17:22:00,77.6,66.6,29.97,SSW,200,2.0,9.0,69,0.00,,,0.00,Wunderground v.1.13,2013-04-03 21:22:00,
2013-04-03 17:28:00,77.4,66.4,29.97,SSW,199,1.0,9.0,69,0.00,,,0.00,Wunderground v.1.13,2013-04-03 21:28:00,
2013-04-03 17:36:00,77.6,66.6,29.96,SSW,211,0.0,9.0,69,0.00,,,0.00,Wunderground v.1.13,2013-04-03 21:36:00,
2013-04-03 17:42:00,77.6,65.8,29.96,SSW,206,1.0,9.0,67,0.00,,,0.00,Wunderground v.1.13,2013-04-03 21:42:00,
2013-04-03 17:48:00,77.4,66.0,29.96,SSW,203,2.0,2.0,68,0.00,,,0.00,Wunderground v.1.13,2013-04-03 21:48:00,
2013-04-03 17:54:00,77.3,66.3,29.96,SW,219,2.0,2.0,69,0.00,,,0.00,Wunderground v.1.13,2013-04-03 21:54:00,
2013-04-03 18:00:00,77.2,66.7,29.95,SSW,209,0.0,9.0,70,0.00,,,0.00,Wunderground v.1.13,2013-04-03 22:00:00,
2013-04-03 18:06:00,77.1,66.6,29.95,South,189,0.0,0.0,70,0.00,,,0.00,Wunderground v.1.13,2013-04-03 22:06:00,
2013-04-03 18:12:00,77.0,66.9,29.95,SSW,205,0.0,0.0,71,0.00,,,0.00,Wunderground v.1.13,2013-04-03 22:12:00,
2013-04-03 18:18:00,77.0,66.9,29.95,SSW,207,0.0,10.0,71,0.00,,,0.00,Wunderground v.1.13,2013-04-03 22:18:00,
2013-04-03 18:24:00,77.0,66.9,29.95,SSW,202,0.0,10.0,71,0.00,,,0.00,Wunderground v.1.13,2013-04-03 22:24:00,
2013-04-03 18:30:00,76.8,66.7,29.96,SSW,192,1.0,1.0,71,0.00,,,0.00,Wunderground v.1.13,2013-04-03 22:30:00,
2013-04-03 18:38:00,76.7,67.0,29.96,SW,219,1.0,10.0,72,0.00,,,0.00,Wunderground v.1.13,2013-04-03 22:38:00,
2013-04-03 18:44:00,76.6,67.3,29.97,SW,235,0.0,10.0,73,0.00,,,0.00,Wunderground v.1.13,2013-04-03 22:44:00,
2013-04-03 18:50:00,76.4,67.9,29.96,SW,234,1.0,10.0,75,0.00,,,0.00,Wunderground v.1.13,2013-04-03 22:50:00,
2013-04-03 18:56:00,76.3,67.8,29.97,SW,236,1.0,10.0,75,0.00,,,0.00,Wunderground v.1.13,2013-04-03 22:56:00,
2013-04-03 19:02:00,76.1,67.6,29.96,South,191,1.0,10.0,75,0.00,,,0.00,Wunderground v.1.13,2013-04-03 23:02:00,
2013-04-03 19:08:00,75.8,67.7,29.96,South,188,3.0,3.0,76,0.00,,,0.00,Wunderground v.1.13,2013-04-03 23:08:00,
2013-04-03 19:16:00,75.6,67.9,29.96,SSW,194,2.0,9.0,77,0.00,,,0.00,Wunderground v.1.13,2013-04-03 23:16:00,
2013-04-03 19:22:00,75.4,68.1,29.96,SSW,211,2.0,9.0,78,0.00,,,0.00,Wunderground v.1.13,2013-04-03 23:22:00,
2013-04-03 19:28:00,75.3,68.0,29.96,South,191,1.0,9.0,78,0.00,,,0.00,Wunderground v.1.13,2013-04-03 23:28:00,
2013-04-03 19:34:00,75.2,67.9,29.96,South,188,1.0,9.0,78,0.00,,,0.00,Wunderground v.1.13,2013-04-03 23:34:00,
2013-04-03 19:40:00,75.1,67.8,29.96,South,189,1.0,9.0,78,0.00,,,0.00,Wunderground v.1.13,2013-04-03 23:40:00,
2013-04-03 19:48:00,75.0,68.0,29.97,SSW,208,1.0,1.0,79,0.00,,,0.00,Wunderground v.1.13,2013-04-03 23:48:00,
2013-04-03 19:54:00,75.0,68.0,29.97,SSW,209,1.0,9.0,79,0.00,,,0.00,Wunderground v.1.13,2013-04-03 23:54:00,
2013-04-03 20:00:00,75.1,68.1,29.96,SSW,213,2.0,9.0,79,0.00,,,0.00,Wunderground v.1.13,2013-04-04 00:00:00,
2013-04-03 20:06:00,75.1,68.1,29.97,SSW,195,1.0,5.0,79,0.00,,,0.00,Wunderground v.1.13,2013-04-04 00:06:00,
2013-04-03 20:12:00,75.1,67.8,29.97,SSW,197,1.0,1.0,78,0.00,,,0.00,Wunderground v.1.13,2013-04-04 00:12:00,
2013-04-03 20:18:00,75.1,67.8,29.97,South,177,1.0,1.0,78,0.00,,,0.00,Wunderground v.1.13,2013-04-04 00:18:00,
2013-04-03 20:24:00,75.2,67.9,29.97,SSW,206,1.0,1.0,78,0.00,,,0.00,Wunderground v.1.13,2013-04-04 00:24:00,
2013-04-03 20:32:00,75.2,68.2,30.00,WSW,244,0.0,12.0,79,0.00,,,0.00,Wunderground v.1.13,2013-04-04 00:32:00,
2013-04-03 20:38:00,75.0,69.1,30.00,South,171,2.0,12.0,82,0.00,,,0.00,Wunderground v.1.13,2013-04-04 00:38:00,
2013-04-03 20:44:00,73.7,69.2,30.00,South,189,5.0,12.0,86,0.18,,,0.04,Wunderground v.1.13,2013-04-04 00:44:00,
2013-04-03 20:50:00,72.8,69.0,30.00,SW,235,2.0,12.0,88,0.09,,,0.04,Wunderground v.1.13,2013-04-04 00:50:00,
2013-04-03 20:56:00,72.3,68.9,30.01,SW,234,0.0,12.0,89,0.05,,,0.04,Wunderground v.1.13,2013-04-04 00:56:00,
2013-04-03 21:02:00,71.9,68.8,30.01,WSW,237,0.0,12.0,90,0.00,,,0.04,Wunderground v.1.13,2013-04-04 01:02:00,
2013-04-03 21:08:00,71.9,68.8,30.01,SW,218,0.0,0.0,90,0.00,,,0.04,Wunderground v.1.13,2013-04-04 01:08:00,
2013-04-03 21:14:00,71.9,68.8,30.00,SSW,198,0.0,0.0,90,0.00,,,0.04,Wunderground v.1.13,2013-04-04 01:14:00,
2013-04-03 21:20:00,72.0,69.2,30.00,SSW,204,0.0,18.0,91,0.00,,,0.04,Wunderground v.1.13,2013-04-04 01:20:00,
2013-04-03 21:26:00,72.1,69.3,30.00,SSW,203,0.0,18.0,91,0.00,,,0.04,Wunderground v.1.13,2013-04-04 01:26:00,
2013-04-03 21:32:00,72.1,69.3,30.00,SSW,195,0.0,18.0,91,0.00,,,0.04,Wunderground v.1.13,2013-04-04 01:32:00,
2013-04-03 21:38:00,72.2,69.4,30.00,SSW,194,0.0,18.0,91,0.00,,,0.04,Wunderground v.1.13,2013-04-04 01:38:00,
2013-04-03 21:44:00,72.1,69.3,30.00,SSE,150,0.0,18.0,91,0.00,,,0.04,Wunderground v.1.13,2013-04-04 01:44:00,
2013-04-03 21:50:00,71.8,68.7,30.02,SSE,150,0.0,18.0,90,0.00,,,0.04,Wunderground v.1.13,2013-04-04 01:50:00,
2013-04-03 21:56:00,71.8,68.4,30.02,SSE,150,0.0,18.0,89,0.00,,,0.04,Wunderground v.1.13,2013-04-04 01:56:00,
2013-04-03 22:02:00,71.7,68.3,30.02,SSE,150,0.0,18.0,89,0.00,,,0.04,Wunderground v.1.13,2013-04-04 02:02:00,
2013-04-03 22:08:00,71.5,68.1,30.03,SSE,150,0.0,0.0,89,0.00,,,0.04,Wunderground v.1.13,2013-04-04 02:08:00,
2013-04-03 22:14:00,71.3,67.9,30.02,SSE,150,0.0,0.0,89,0.00,,,0.04,Wunderground v.1.13,2013-04-04 02:14:00,
2013-04-03 22:20:00,71.5,68.4,30.01,East,91,0.0,0.0,90,0.00,,,0.04,Wunderground v.1.13,2013-04-04 02:20:00,
2013-04-03 22:28:00,71.3,68.2,30.02,East,91,0.0,0.0,90,0.00,,,0.04,Wunderground v.1.13,2013-04-04 02:28:00,
2013-04-03 22:34:00,71.5,68.7,30.02,East,91,0.0,0.0,91,0.00,,,0.04,Wunderground v.1.13,2013-04-04 02:34:00,
2013-04-03 22:40:00,71.6,68.5,30.03,East,91,0.0,0.0,90,0.00,,,0.04,Wunderground v.1.13,2013-04-04 02:40:00,
2013-04-03 22:46:00,71.9,68.8,30.03,SSE,155,0.0,0.0,90,0.00,,,0.05,Wunderground v.1.13,2013-04-04 02:46:00,
2013-04-03 22:52:00,71.9,68.8,30.03,SSE,154,0.0,0.0,90,0.00,,,0.05,Wunderground v.1.13,2013-04-04 02:52:00,
2013-04-03 22:58:00,71.8,69.0,30.02,SSE,155,0.0,0.0,91,0.00,,,0.05,Wunderground v.1.13,2013-04-04 02:58:00,
2013-04-03 23:04:00,71.6,68.8,30.02,SE,128,0.0,0.0,91,0.04,,,0.06,Wunderground v.1.13,2013-04-04 03:04:00,
2013-04-03 23:10:00,71.3,68.9,30.00,SSE,158,0.0,5.0,92,0.04,,,0.06,Wunderground v.1.13,2013-04-04 03:10:00,
2013-04-03 23:16:00,71.2,68.8,30.00,SSE,165,1.0,7.0,92,0.04,,,0.06,Wunderground v.1.13,2013-04-04 03:16:00,
2013-04-03 23:22:00,71.1,68.7,29.99,SSE,159,3.0,10.0,92,0.00,,,0.06,Wunderground v.1.13,2013-04-04 03:22:00,
2013-04-03 23:28:00,70.9,68.8,29.97,SSE,163,5.0,9.0,93,0.00,,,0.06,Wunderground v.1.13,2013-04-04 03:28:00,
2013-04-03 23:34:00,70.9,68.8,29.99,SSE,167,5.0,13.0,93,0.00,,,0.06,Wunderground v.1.13,2013-04-04 03:34:00,
2013-04-03 23:40:00,70.9,68.8,30.00,SSE,154,2.0,6.0,93,0.00,,,0.06,Wunderground v.1.13,2013-04-04 03:40:00,
2013-04-03 23:48:00,70.8,68.7,30.01,SSE,155,1.0,1.0,93,0.00,,,0.06,Wunderground v.1.13,2013-04-04 03:48:00,
2013-04-03 23:54:00,70.9,68.5,30.00,SSE,158,0.0,1.0,92,0.00,,,0.06,Wunderground v.1.13,2013-04-04 03:54:00,